www.pogodaiklimat.ru

Погода и климат >> Архив погоды >> Россия >> Волгоградская область >> Волгоград


АРХИВ ПОГОДЫ в Волгограде

Время (UTC), дата Ветер
(напр.,м/с)
 
Видим.   Явления Облачность Т
(С)
Тd
(С)
f
(%)
Тe
(С)
Тes
(С)
Комфортность P
(гПа)
Po
(гПа)
Тmin
(С)
Tmax
(С)
R
(мм)
R24
(мм)
S
(см)
00 16.09 Ю 2 10 км ясно +7.9 +0.9 61 +6 +6 прохладно 1018.9 1000.1
03 16.09 ЮЗ 3 10 км 5/0
[Ac trans]
+9.4 +1.9 59 +7 +7 прохладно 1018.6 999.9 +6.3
06 16.09 ЮЗ 8
{11}
10 км 5/0
[Ci fib]
+18.5 +1.6 32 +18 +19 тепло 1016.6 998.5
09 16.09 З 10-13
{15}
10 км ясно +22.4 +1.3 25 +22 +22 комфорт 1013.7 995.9
12 16.09 ЮЗ 11-14
{17}
10 км ясно +23.0 +0.1 22 +22 +22 комфорт 1010.9 993.1
15 16.09 ЮЗ 7
{16}
10 км ясно +21.4 -0.2 24 +21 +21 комфорт 1010.0 992.2 +23.6
18 16.09 ЮЗ 6
{16}
10 км ясно +17.1 +0.2 32 +16 +16 тепло 1010.0 991.9
21 16.09 ЮЗ 4 10 км ясно +14.0 +1.6 43 +13 +13 тепло 1009.5 991.2
00 17.09 ЮЗ 4 10 км ясно +13.7 +2.4 46 +12 +12 тепло 1008.7 990.4
03 17.09 ЮЗ 4 10 км 3/0
[Ac trans]
+13.2 +4.3 55 +12 +12 по сезону 1008.2 989.9 +12.7
06 17.09 ЮЗ 7 10 км ясно +19.6 +7.5 45 +20 +21 тепло 1007.5 989.6
09 17.09 ЮЗ 10-14
{15}
10 км 4/0
[Ac trans]
+24.7 +8.0 34 +25 +25 комфорт 1005.2 987.7
12 17.09 З 10-14
{16}
10 км 8/0
[Ac trans]
+26.2 +8.3 32 +26 +26 жарко 1003.9 986.5
15 17.09 З 7-11
{14}
10 км 8/0
[Ac trans]
+22.0 +7.3 39 +23 +23 комфорт 1005.0 987.3 +27.0
18 17.09 З 5
{14}
10 км в посл. час ливневой дождь 9/0
[Ac trans]
+17.1 +9.8 62 +16 +16 тепло 1006.9 988.9
21 17.09 ЮЗ 5 10 км слаб. ливневой дождь 9/4 1500 м
[Cb calv Ac trans]
+14.2 +13.1 93 +12 +12 по сезону 1007.3 989.1
00 18.09 З 4 10 км {ливн. осадки} 4/0
[Ac trans]
+12.0 +11.4 96 +10 +10 по сезону 1007.6 989.3
03 18.09 ЮЗ 3 4000 м дымка 3/3 1000 м
[Sc]
+11.0 +10.6 97 +9 +9 по сезону 1008.2 989.8 +10.3
06 18.09 ЮЗ 5 10 км 5/5 1000 м
[Sc]
+15.5 +11.6 78 +14 +15 по сезону 1008.2 990.1
09 18.09 З 9-11
{12}
10 км 6/6 1000 м
[Cu hum]
+20.2 +9.5 50 +21 +21 комфорт 1006.8 989.0
12 18.09 ЮЗ 9-12
{15}
10 км 6/0
[Ac trans]
+22.6 +7.5 38 +24 +24 комфорт 1004.1 986.5
15 18.09 ЮЗ 11-17
{16}
4000 м гроза с градом {ливн. осадки} 9/9 700 м
[Cb calv]
+17.3 +16.2 93 +16 +16 по сезону 1003.0 985.1 +23.3
18 18.09 З 13-19
{17}
10 км {гроза, ливн. осадки} 8/5 480 м
[St Ac trans]
+16.3 +13.3 82 +14 +14 по сезону 1003.4 985.4
21 18.09 З 9-11
{19}
10 км в посл. час ливневой дождь 8/0
[Ac trans]
+12.0 +9.2 83 +9 +9 по сезону 1006.7 988.4
00 19.09 З 8
{19}
10 км {ливн. осадки} 3/0
[Ac trans]
+9.3 +5.1 75 +5 +5 прохладно 1009.2 990.6
03 19.09 З 8-11
{19}
10 км ясно +8.1 +3.2 71 +4 +4 холодно 1011.4 992.7 +8.0
06 19.09 З 10-14
{15}
10 км ясно +11.1 +4.4 63 +7 +7 холодно 1013.8 995.3
09 19.09 З 10-13
{15}
10 км 8/8 960 м
[Sc]
+13.8 +5.3 56 +11 +11 холодно 1015.3 996.9
12 19.09 З 9-12
{15}
10 км 8/8 1000 м
[Sc]
+14.6 +4.5 51 +12 +12 холодно 1016.4 998.0
15 19.09 З 5
{12}
10 км 8/8 1500 м
[Sc]
+12.5 +4.9 60 +10 +10 холодно 1017.6 999.1 +15.6
18 19.09 З 2
{12}
10 км 4/4 1000 м
[Sc]
+7.7 +4.3 79 +6 +6 холодно 1018.9 1000.1
21 19.09 З 3 10 км ясно +6.2 +3.3 82 +3 +3 очень
холодно
1019.3 1000.3
00 20.09 ЮЗ 3 10 км ясно +5.8 +3.1 83 +3 +3 прохладно 1019.1 1000.1
03 20.09 З 2 10 км 8/0
[Ac trans Ci fib]
+5.4 +3.3 86 +3 +3 холодно 1019.1 1000.1 +3.7
06 20.09 ЮЗ 3 10 км 9/0
[Ci fib]
+12.2 +6.1 66 +11 +14 по сезону 1018.5 1000.0
09 20.09 ЮЗ 6 10 км 9/3 600 м
[Cu hum Ci fib]
+14.9 +7.1 60 +13 +15 по сезону 1017.0 998.7
12 20.09 Ю 5
{12}
10 км в посл. час ливневой дождь 8/0
[Ac trans]
+14.6 +5.6 55 +13 +15 прохладно 1015.5 997.2
15 20.09 ЮЗ 3 10 км 9/4 1500 м
[Cb calv Ac trans]
+13.0 +7.0 67 +12 +12 по сезону 1015.2 996.8 +15.8
18 20.09 Ю 4 10 км слаб. ливневой дождь 9/9 1500 м
[Cb calv]
+9.4 +8.1 92 +6 +6 прохладно 1016.0 997.3
21 20.09 ЮЗ 4 10 км слаб. ливневой дождь 9/9 1000 м
[Cb calv]
+8.9 +8.0 94 +6 +6 прохладно 1014.9 996.2
00 21.09 З 3 10 км слаб. ливневой дождь 9/9 50 м
[Cb calv]
+8.6 +8.1 97 +6 +6 прохладно 1014.2 995.5
03 21.09 З 4 10 км слаб. ливневой дождь 9/9 100 м
[Cb calv]
+8.4 +7.6 95 +5 +5 холодно 1013.8 995.1 +8.1
06 21.09 З 5 10 км {ливн. осадки} 8/5 330 м
[St Ac trans]
+9.2 +7.1 87 +6 +6 холодно 1013.6 995.0 +8.1
09 21.09 С 6 10 км гроза, ливневой дождь 8/8 1000 м
[Cb cap]
+12.5 +4.9 60 +10 +11 холодно 1012.8 994.4
12 21.09 ЮЗ 6
{16}
10 км в посл. час гроза {ливн. осадки} [макс. диам. градин 5 мм] 8/4 1500 м
[Cb calv Ac trans]
+10.5 +5.7 72 +7 +8 очень
холодно
1012.7 994.2
15 21.09 З 4 10 км 8/4 1500 м
[Cb calv Ac trans]
+10.8 +4.8 66 +9 +9 холодно 1013.3 994.8 +14.4
18 21.09 З 4 10 км 3/0
[Ac trans]
+7.4 +4.6 82 +4 +4 очень
холодно
1014.1 995.3
21 21.09 З 4 10 км 5/5 1500 м
[Sc]
+6.5 +4.4 86 +3 +3 холодно 1014.0 995.2
00 22.09 З 4 10 км 6/0
[Ac trans]
+6.4 +4.5 88 +3 +3 холодно 1014.0 995.2
03 22.09 З 4 10 км 4/0
[Ac trans]
+4.5 +3.5 93 0 0 очень
холодно
1014.5 995.5 +4.3
06 22.09 ЮЗ 8 10 км 6/0
[Ac trans]
+9.1 +4.2 71 +5 +5 очень
холодно
1013.8 995.1 +4.3
09 22.09 З 12-17
{17}
10 км 10/10 1000 м
[Sc]
+11.0 +1.8 53 +7 +7 очень
холодно
1010.6 992.1
12 22.09 ЮЗ 13-16
{18}
2000 м ливневой дождь 10/10 150 м
[Cb calv]
+9.4 +8.7 95 +4 +4 очень
холодно
1007.2 988.7
15 22.09 З 14-18
{19}
10 км {ливн. осадки, дождь} 10/10 240 м
[Frnb Ns]
+11.0 +9.6 91 +6 +6 очень
холодно
1005.9 987.5 +11.5
18 22.09 З 12-17
{19}
10 км {ливн. осадки, дождь} 8/8 1500 м
[Sc]
+12.2 +9.9 86 +8 +8 прохладно 1006.4 988.1
21 22.09 З 9-11
{17}
10 км слаб. ливневой дождь 9/9 1500 м
[Cb calv]
+11.3 +9.3 87 +7 +7 прохладно 1007.0 988.6

 

Местоположение метеостанции Волгоград (Волгоградская область, Россия): широта 48.78 долгота 44.37 высота над уровнем моря 134 м.

В архиве по умолчанию представлена погода в Волгограде за последнюю неделю. Архивные данные за месяц целиком и за предыдущие месяцы, начиная с января 2011 года, Вы можете получить, выбрав интересующий диапазон дат из раскрывающегося списка и нажав кнопку "Ввод!".


*Определитесь, кто Вы:
робот инопланетянин человек

Внимание! Время в таблицах - всемирное. Для получения местного времени необходимо прибавить поправку, которая равна 3 ч.

Смотрите также архив погоды в соседних городах и на ближайших метеорологических станциях:

Погода в Волгограде город (Волгоградская область, Россия) (14 км)
Погода в Иловле (Волгоградская область, Россия) (64 км)
Погода в Калаче-на-Дону (Волгоградская область, Россия) (66 км)
Погода в Малых Дербетах (Калмыкия, Россия) (98 км)
Погода в Нижнем Чире (Волгоградская область, Россия) (105 км)
Погода в Ольховке (Волгоградская область, Россия) (122 км)
Погода в Фролове (Волгоградская область, Россия) (124 км)
Погода в Серафимовиче (Волгоградская область, Россия) (148 км)
Погода в Черный Яр (Астраханская область, Россия) (151 км)
Погода в Котельниково (Волгоградская область, Россия) (157 км)

Пояснения к столбцам:

Ветер - указаны скорость ветра в м/с - средняя за 10 мин, порывы в срок и между сроками (в фигурных скобках) и направление, откуда дует ветер: С - северный, СВ - северо-восточный, В - восточный, ЮВ - юго-восточный, Ю - южный, ЮЗ - юго-западный, З - западный, СЗ - северо-западный.
Видимость - горизонтальная дальность видимости в метрах или километрах. При видимости от 1 до 10 км при отсутствии осадков обычно наблюдается дымка, при ухудшении видимости до 1 км и менее - туман. В сухую погоду видимость может ухудшаться дымом, пылью или мглою.
Явления - указаны атмосферные явления, наблюдавшиеся в срок или в последний час перед сроком; фигурными скобками обозначены явления, наблюдавшиеся между сроками (за 1-3 часа до срока); квадратными скобками обозначены град или гололедные отложения с указанием их диаметра в мм.
Облачность - указаны через наклонную черту общая и нижняя облачность в баллах и высота нижней границы облаков в метрах; квадратными скобками обозначены формы облаков: Ci - перистые, Cs - перисто-слоистые, Cc - перисто-кучевые, Ac - высококучевые, As - высокослоистые, Sc - слоисто-кучевые, Ns - слоисто-дождевые, Cu - кучевые, Cb - кучево-дождевые. Подробнее классификацию облаков см. в Атласе облаков (PDF).
T - Температура воздуха - температура, измеренная на высоте 2 м над землей.
Td - Температура точки росы - температура, при понижении до которой содержащийся в воздухе водяной пар достигнет насыщения.
f - Относительная влажность воздуха - влажноcть воздуха, измеренная на высоте 2 м над землей.
Te - Эффективная температура - температура, которую ощущает одетый по сезону человек в тени. Характеристика душности погоды. При расчете учитывается влияние влажности воздуха и скорости ветра на теплоощущения человека.
Tes - Эффективная температура на солнце - температура, которую ощущает человек, с поправкой на солнечный нагрев. Характеристика знойности погоды. Зависит от высоты солнца над горизонтом, облачности и скорости ветра. Ночью, в пасмурную погоду, а также при ветре 12 м/с и более поправка равна нулю.
P - Атмосферное давление - приведенное к уровню моря атмосферное давление.
Po - Атмосферное давление - измеренное на уровне метеостанции атмосферное давление.
Tmin - Минимальная температура - минимум температуры воздуха на высоте 2 м над землей.
Tmax - Максимальная температура - максимум температуры воздуха на высоте 2 м над землей.
R - Количество осадков - Количество выпавших осадков за период времени, мм. При наведении курсора мыши на число - период времени, за который выпало указанное количество осадков.
R24 - Количество осадков - Количество выпавших осадков за 24 часа, мм.
S - Снежный покров - Высота снежного покрова, см. При наведении курсора мыши на число - состояние снежного покрова и степень покрытия местности в баллах.